« Back
NWS Peachtree City, Ga » Text Product » GA Regional Weather Roundup


Printer-friendly Version
Current Version              Previous Versions:   1  2  3  4  5  6  7  8  9  

Regional Weather Roundup

859
ASUS42 KFFC 251203
RWRGA
WEATHER ROUNDUP FOR GEORGIA
NATIONAL WEATHER SERVICE PEACHTREE CITY GA
800 AM EDT WED MAY 25 2016

NOTE: "FAIR" INDICATES FEW OR NO CLOUDS BELOW 12,000 FEET WITH NO
SIGNIFICANT WEATHER AND/OR OBSTRUCTIONS TO VISIBILITY.

* = USE WITH CAUTION. THE STATIONS MARKED WITH AN ASTERISK MAY NOT
REPORT WEATHER SUCH AS PRECIPITATION, FOG, OR THUNDER AND ARE NOT
QUALITY CONTROLLED BY NWS.

THE REMARK "TC" DENOTES TEMPERATURE READING IN DEGREES CELSIUS.

GAZ001>058-251300-
NORTH GEORGIA

CITY           SKY/WX    TMP DP  RH WIND       PRES   REMARKS
ATLANTA        MOSUNNY   68  54  60 CALM      30.20R
6HR MIN TEMP:  64; 6HR MAX TEMP:  69;

ATHENS         SUNNY     68  59  73 CALM      30.22R
6HR MIN TEMP:  58; 6HR MAX TEMP:  68;

CHAMBLEE       SUNNY     68  59  73 CALM      30.21R
6HR MIN TEMP:  59; 6HR MAX TEMP:  68;

PEACHTREE CITY SUNNY     60  58  92 CALM      30.22R
6HR MIN TEMP:  55; 6HR MAX TEMP:  60;

ROME           SUNNY     61  57  87 CALM      30.20R
6HR MIN TEMP:  56; 6HR MAX TEMP:  61;

WEST ATLANTA   SUNNY     63  57  81 CALM      30.21R
6HR MIN TEMP:  57; 6HR MAX TEMP:  63;

GAINESVILLE    SUNNY     66  57  72 CALM      30.25R
6HR MIN TEMP:  60; 6HR MAX TEMP:  66;

CARTERSVILLE   SUNNY     63  60  90 CALM      30.21R
6HR MIN TEMP:  55; 6HR MAX TEMP:  63;



CITY           SKY/WX    TMP DP  RH WIND       PRES   REMARKS
DALTON*        SUNNY     59  59 100 CALM      30.20R
LAWRENCEVILLE* SUNNY     63  57  82 CALM      30.22R
MARIETTA       PTSUNNY   65  60  83 CALM      30.21R
KENNESAW*      MOSUNNY   63  55  77 CALM      30.20R
CANTON*        SUNNY     59  54  82 CALM      30.23R
BLAIRSVILLE*     N/A    N/A N/A N/A MISG      30.26R
$$

GAZ059>098-102>109-251300-
CENTRAL GEORGIA

CITY           SKY/WX    TMP DP  RH WIND       PRES   REMARKS
AUGUSTA-BUSH   SUNNY     64  63  96 CALM      30.22R
6HR MIN TEMP:  56; 6HR MAX TEMP:  64;

AUGUSTA-DANIEL SUNNY     71  60  68 CALM      30.23R
6HR MIN TEMP:  68; 6HR MAX TEMP:  71;

COLUMBUS       SUNNY     63  55  75 E5        30.20R
6HR MIN TEMP:  60; 6HR MAX TEMP:  67;

MACON          SUNNY     64  60  87 SE3       30.21R
6HR MIN TEMP:  57; 6HR MAX TEMP:  64;

ROBINS AFB     SUNNY     63  60  89 SE5       30.20R


CITY           SKY/WX    TMP DP  RH WIND       PRES   REMARKS
LAGRANGE*      SUNNY     63  62  95 CALM      30.21R
SYLVANIA*      SUNNY     67  66  94 CALM      30.23R
MILLEDGEVILLE* SUNNY     64  61  88 CALM      30.22R
$$

GAZ099>101-110>166-251300-
SOUTH GEORGIA

CITY           SKY/WX    TMP DP  RH WIND       PRES   REMARKS
SAVANNAH       MOSUNNY   70  66  87 CALM      30.24R
6HR MIN TEMP:  65; 6HR MAX TEMP:  71;

VALDOSTA       SUNNY     67  62  84 SE3       30.21R
6HR MIN TEMP:  62; 6HR MAX TEMP:  71;

ALMA           MOSUNNY   67  64  90 CALM      30.22R
6HR MIN TEMP:  60; 6HR MAX TEMP:  67;

ST SIMONS      SUNNY     73  68  84 CALM      30.22R
6HR MIN TEMP:  66; 6HR MAX TEMP:  77;

FT STEWART     SUNNY     66  63  91 CALM      30.21R
ALBANY         SUNNY     67  60  78 CALM      30.22R
MOODY AFB      SUNNY     68  60  75 SE5       30.20R
BRUNSWICK      SUNNY     61  61 100 CALM      30.23R


CITY           SKY/WX    TMP DP  RH WIND       PRES   REMARKS
BAINBRIDGE*    SUNNY     64  61  88 CALM      30.19R
MOULTRIE*      SUNNY     66  61  82 SE3       30.21R
VIDALIA*       SUNNY     66  63  88 CALM      30.22R
WAYCROSS*      PTSUNNY   69  65  86 CALM      30.23R
DOUGLAS*       SUNNY     72  63  73 CALM      30.23S
$$




USA.gov is the U.S. government's official web portal to all federal, state and local government web resources and services.